Time,TemperatureF,DewpointF,PressureIn,WindDirection,WindDirectionDegrees,WindSpeedMPH,WindSpeedGustMPH,Humidity,HourlyPrecipIn,Conditions,Clouds,dailyrainin,SoftwareType,DateUTC
2013-01-24 00:04:00,60.1,17.8,30.09,North,-999,0.0,0.0,19,0.00,,,-99.99,FreeWX-Wi 1.02,2013-01-24 08:04:00,
2013-01-24 00:09:00,60.3,17.8,30.09,North,-999,0.0,0.0,19,0.00,,,-99.99,FreeWX-Wi 1.02,2013-01-24 08:09:00,
2013-01-24 00:14:00,60.1,17.8,30.12,North,-999,0.0,0.0,19,0.00,,,-99.99,FreeWX-Wi 1.02,2013-01-24 08:14:00,
2013-01-24 00:19:00,59.9,17.6,30.12,North,-999,0.0,0.0,19,0.00,,,-99.99,FreeWX-Wi 1.02,2013-01-24 08:19:00,
2013-01-24 00:24:00,59.7,17.4,30.12,North,-999,0.0,0.0,19,0.00,,,-99.99,FreeWX-Wi 1.02,2013-01-24 08:24:00,
2013-01-24 00:29:00,59.4,17.1,30.12,North,-999,0.0,0.0,19,0.00,,,-99.99,FreeWX-Wi 1.02,2013-01-24 08:29:00,
2013-01-24 00:34:00,59.4,17.1,30.12,North,-999,0.0,0.0,19,0.00,,,-99.99,FreeWX-Wi 1.02,2013-01-24 08:34:00,
2013-01-24 00:39:00,59.4,17.1,30.12,North,-999,0.0,4.0,19,0.00,,,-99.99,FreeWX-Wi 1.02,2013-01-24 08:39:00,
2013-01-24 00:44:00,59.7,17.4,30.09,North,-999,0.0,3.1,19,0.00,,,-99.99,FreeWX-Wi 1.02,2013-01-24 08:44:00,
2013-01-24 00:49:00,60.1,17.8,30.09,North,-999,0.0,0.0,19,0.00,,,-99.99,FreeWX-Wi 1.02,2013-01-24 08:49:00,
2013-01-24 00:54:00,60.3,17.8,30.09,North,-999,0.0,0.0,19,0.00,,,-99.99,FreeWX-Wi 1.02,2013-01-24 08:54:00,
2013-01-24 00:59:00,60.4,18.0,30.09,North,-999,0.0,0.0,19,0.00,,,-99.99,FreeWX-Wi 1.02,2013-01-24 08:59:00,
2013-01-24 01:04:00,59.9,17.6,30.09,North,-999,0.0,0.0,19,0.00,,,-99.99,FreeWX-Wi 1.02,2013-01-24 09:04:00,
2013-01-24 01:09:00,59.4,17.1,30.09,North,-999,0.0,0.0,19,0.00,,,-99.99,FreeWX-Wi 1.02,2013-01-24 09:09:00,
2013-01-24 01:14:00,59.7,17.4,30.09,North,-999,0.0,3.1,19,0.00,,,-99.99,FreeWX-Wi 1.02,2013-01-24 09:14:00,
2013-01-24 01:19:00,61.2,18.5,30.09,North,-999,0.0,3.6,19,0.00,,,-99.99,FreeWX-Wi 1.02,2013-01-24 09:19:00,
2013-01-24 01:24:00,61.0,18.5,30.09,North,-999,0.0,0.0,19,0.00,,,-99.99,FreeWX-Wi 1.02,2013-01-24 09:24:00,
2013-01-24 01:29:00,60.8,18.3,30.09,North,-999,0.0,4.0,19,0.00,,,-99.99,FreeWX-Wi 1.02,2013-01-24 09:29:00,
2013-01-24 01:34:00,60.8,18.3,30.09,North,-999,0.0,3.6,19,0.00,,,-99.99,FreeWX-Wi 1.02,2013-01-24 09:34:00,
2013-01-24 01:39:00,61.3,18.7,30.09,North,359,1.0,4.0,19,0.00,,,-99.99,FreeWX-Wi 1.02,2013-01-24 09:39:00,
2013-01-24 01:44:00,61.5,18.9,30.09,North,351,1.0,5.4,19,0.00,,,-99.99,FreeWX-Wi 1.02,2013-01-24 09:44:00,
2013-01-24 01:49:00,61.7,19.0,30.09,NNW,340,1.0,5.4,19,0.00,,,-99.99,FreeWX-Wi 1.02,2013-01-24 09:49:00,
2013-01-24 01:54:00,61.5,18.9,30.09,NNW,329,2.0,5.8,19,0.00,,,-99.99,FreeWX-Wi 1.02,2013-01-24 09:54:00,
2013-01-24 01:59:00,62.2,19.4,30.09,NW,326,2.0,8.3,19,0.00,,,-99.99,FreeWX-Wi 1.02,2013-01-24 09:59:00,
2013-01-24 02:04:00,62.6,18.5,30.09,NW,325,3.0,3.6,18,0.00,,,-99.99,FreeWX-Wi 1.02,2013-01-24 10:04:00,
2013-01-24 02:09:00,62.2,19.4,30.09,NW,324,3.0,5.4,19,0.00,,,-99.99,FreeWX-Wi 1.02,2013-01-24 10:09:00,
2013-01-24 02:14:00,62.4,19.6,30.09,NNW,327,3.0,5.8,19,0.00,,,-99.99,FreeWX-Wi 1.02,2013-01-24 10:14:00,
2013-01-24 02:19:00,62.2,19.4,30.09,NNW,331,3.0,5.4,19,0.00,,,-99.99,FreeWX-Wi 1.02,2013-01-24 10:19:00,
2013-01-24 02:24:00,62.4,19.6,30.09,NNW,338,2.0,3.6,19,0.00,,,-99.99,FreeWX-Wi 1.02,2013-01-24 10:24:00,
2013-01-24 02:29:00,62.4,19.6,30.09,NNW,337,2.0,5.4,19,0.00,,,-99.99,FreeWX-Wi 1.02,2013-01-24 10:29:00,
2013-01-24 02:34:00,62.2,19.4,30.09,NNW,331,2.0,4.0,19,0.00,,,-99.99,FreeWX-Wi 1.02,2013-01-24 10:34:00,
2013-01-24 02:39:00,62.4,19.6,30.09,NNW,334,2.0,4.9,19,0.00,,,-99.99,FreeWX-Wi 1.02,2013-01-24 10:39:00,
2013-01-24 02:44:00,62.4,19.6,30.06,NNW,340,2.0,4.9,19,0.00,,,-99.99,FreeWX-Wi 1.02,2013-01-24 10:44:00,
2013-01-24 02:49:00,62.6,18.5,30.06,NNW,338,1.0,6.3,18,0.00,,,-99.99,FreeWX-Wi 1.02,2013-01-24 10:49:00,
2013-01-24 02:55:00,62.4,19.6,30.06,NNW,331,1.0,0.0,19,0.00,,,-99.99,FreeWX-Wi 1.02,2013-01-24 10:55:00,
2013-01-24 03:00:00,62.2,19.4,30.09,North,-999,0.0,0.0,19,0.00,,,-99.99,FreeWX-Wi 1.02,2013-01-24 11:00:00,
2013-01-24 03:05:00,61.9,19.2,30.09,North,-999,0.0,0.0,19,0.00,,,-99.99,FreeWX-Wi 1.02,2013-01-24 11:05:00,
2013-01-24 03:10:00,61.5,18.9,30.09,North,-999,0.0,4.9,19,0.00,,,-99.99,FreeWX-Wi 1.02,2013-01-24 11:10:00,
2013-01-24 03:15:00,61.7,19.0,30.09,North,-999,0.0,4.0,19,0.00,,,-99.99,FreeWX-Wi 1.02,2013-01-24 11:15:00,
2013-01-24 03:20:00,61.5,18.9,30.09,WNW,287,1.0,3.6,19,0.00,,,-99.99,FreeWX-Wi 1.02,2013-01-24 11:20:00,
2013-01-24 03:25:00,61.5,18.9,30.09,West,279,1.0,0.0,19,0.00,,,-99.99,FreeWX-Wi 1.02,2013-01-24 11:25:00,
2013-01-24 03:30:00,61.3,18.7,30.09,West,271,1.0,0.0,19,0.00,,,-99.99,FreeWX-Wi 1.02,2013-01-24 11:30:00,
2013-01-24 03:35:00,61.3,18.7,30.09,West,263,1.0,0.0,19,0.00,,,-99.99,FreeWX-Wi 1.02,2013-01-24 11:35:00,
2013-01-24 03:40:00,61.2,18.5,30.09,WSW,256,1.0,3.6,19,0.00,,,-99.99,FreeWX-Wi 1.02,2013-01-24 11:40:00,
2013-01-24 03:45:00,61.0,18.5,30.09,North,-999,0.0,3.1,19,0.00,,,-99.99,FreeWX-Wi 1.02,2013-01-24 11:45:00,
2013-01-24 03:50:00,60.8,18.3,30.09,North,-999,0.0,0.0,19,0.00,,,-99.99,FreeWX-Wi 1.02,2013-01-24 11:50:00,
2013-01-24 03:55:00,60.8,18.3,30.09,North,-999,0.0,0.0,19,0.00,,,-99.99,FreeWX-Wi 1.02,2013-01-24 11:55:00,
2013-01-24 04:00:00,60.6,18.1,30.09,North,-999,0.0,0.0,19,0.00,,,-99.99,FreeWX-Wi 1.02,2013-01-24 12:00:00,
2013-01-24 04:05:00,60.6,18.1,30.09,North,-999,0.0,2.7,19,0.00,,,-99.99,FreeWX-Wi 1.02,2013-01-24 12:05:00,
2013-01-24 04:10:00,60.6,18.1,30.09,North,-999,0.0,3.6,19,0.00,,,-99.99,FreeWX-Wi 1.02,2013-01-24 12:10:00,
2013-01-24 04:15:00,60.4,18.0,30.06,North,-999,0.0,4.9,19,0.00,,,-99.99,FreeWX-Wi 1.02,2013-01-24 12:15:00,
2013-01-24 04:20:00,61.0,18.5,30.06,West,265,1.0,5.4,19,0.00,,,-99.99,FreeWX-Wi 1.02,2013-01-24 12:20:00,
2013-01-24 04:25:00,61.2,18.5,30.06,WNW,285,2.0,4.0,19,0.00,,,-99.99,FreeWX-Wi 1.02,2013-01-24 12:25:00,
2013-01-24 04:30:00,61.2,18.5,30.06,NW,317,2.0,3.6,19,0.00,,,-99.99,FreeWX-Wi 1.02,2013-01-24 12:30:00,
2013-01-24 04:35:00,61.7,19.0,30.06,North,358,2.0,4.0,19,0.00,,,-99.99,FreeWX-Wi 1.02,2013-01-24 12:35:00,
2013-01-24 04:40:00,61.5,18.9,30.06,NNE,18,2.0,0.0,19,0.00,,,-99.99,FreeWX-Wi 1.02,2013-01-24 12:40:00,
2013-01-24 04:45:00,61.2,18.5,30.09,NNE,28,2.0,0.0,19,0.00,,,-99.99,FreeWX-Wi 1.02,2013-01-24 12:45:00,
2013-01-24 04:50:00,61.0,18.5,30.09,NNE,31,1.0,0.0,19,0.00,,,-99.99,FreeWX-Wi 1.02,2013-01-24 12:50:00,
2013-01-24 04:55:00,60.8,18.3,30.09,North,-999,0.0,0.0,19,0.00,,,-99.99,FreeWX-Wi 1.02,2013-01-24 12:55:00,
2013-01-24 05:00:00,60.6,18.1,30.09,North,-999,0.0,0.0,19,0.00,,,-99.99,FreeWX-Wi 1.02,2013-01-24 13:00:00,
2013-01-24 05:05:00,61.0,18.5,30.09,North,-999,0.0,3.6,19,0.00,,,-99.99,FreeWX-Wi 1.02,2013-01-24 13:05:00,
2013-01-24 05:10:00,61.0,18.5,30.09,North,-999,0.0,2.2,19,0.00,,,-99.99,FreeWX-Wi 1.02,2013-01-24 13:10:00,
2013-01-24 05:15:00,60.8,18.3,30.09,North,-999,0.0,0.0,19,0.00,,,-99.99,FreeWX-Wi 1.02,2013-01-24 13:15:00,
2013-01-24 05:20:00,60.6,18.1,30.09,North,-999,0.0,0.0,19,0.00,,,-99.99,FreeWX-Wi 1.02,2013-01-24 13:20:00,
2013-01-24 05:25:00,60.3,17.8,30.09,North,-999,0.0,0.0,19,0.00,,,-99.99,FreeWX-Wi 1.02,2013-01-24 13:25:00,
2013-01-24 05:30:00,60.1,17.8,30.09,North,-999,0.0,0.0,19,0.00,,,-99.99,FreeWX-Wi 1.02,2013-01-24 13:30:00,
2013-01-24 05:35:00,59.9,17.6,30.09,North,-999,0.0,0.0,19,0.00,,,-99.99,FreeWX-Wi 1.02,2013-01-24 13:35:00,
2013-01-24 05:40:00,59.7,17.4,30.09,North,-999,0.0,0.0,19,0.00,,,-99.99,FreeWX-Wi 1.02,2013-01-24 13:40:00,
2013-01-24 05:45:00,59.7,17.4,30.09,North,-999,0.0,0.0,19,0.00,,,-99.99,FreeWX-Wi 1.02,2013-01-24 13:45:00,
2013-01-24 05:50:00,59.7,17.4,30.09,North,-999,0.0,0.0,19,0.00,,,-99.99,FreeWX-Wi 1.02,2013-01-24 13:50:00,
2013-01-24 05:55:00,59.5,17.2,30.09,North,-999,0.0,0.0,19,0.00,,,-99.99,FreeWX-Wi 1.02,2013-01-24 13:55:00,
2013-01-24 06:00:00,59.7,17.4,30.12,North,-999,0.0,0.0,19,0.00,,,-99.99,FreeWX-Wi 1.02,2013-01-24 14:00:00,
2013-01-24 06:05:00,59.5,17.2,30.12,North,-999,0.0,0.0,19,0.00,,,-99.99,FreeWX-Wi 1.02,2013-01-24 14:05:00,
2013-01-24 06:10:00,59.4,17.1,30.12,North,-999,0.0,0.0,19,0.00,,,-99.99,FreeWX-Wi 1.02,2013-01-24 14:10:00,
2013-01-24 06:15:00,59.4,17.1,30.12,North,-999,0.0,0.0,19,0.00,,,-99.99,FreeWX-Wi 1.02,2013-01-24 14:15:00,
2013-01-24 06:20:00,59.4,17.1,30.12,North,-999,0.0,0.0,19,0.00,,,-99.99,FreeWX-Wi 1.02,2013-01-24 14:20:00,
2013-01-24 06:25:00,59.4,17.1,30.12,North,-999,0.0,0.0,19,0.00,,,-99.99,FreeWX-Wi 1.02,2013-01-24 14:25:00,
2013-01-24 06:30:00,59.0,16.9,30.12,North,-999,0.0,0.0,19,0.00,,,-99.99,FreeWX-Wi 1.02,2013-01-24 14:30:00,
2013-01-24 06:35:00,58.8,16.7,30.12,North,-999,0.0,2.7,19,0.00,,,-99.99,FreeWX-Wi 1.02,2013-01-24 14:35:00,
2013-01-24 06:40:00,58.8,16.7,30.12,North,-999,0.0,0.0,19,0.00,,,-99.99,FreeWX-Wi 1.02,2013-01-24 14:40:00,
2013-01-24 06:45:00,58.8,16.7,30.12,North,-999,0.0,0.0,19,0.00,,,-99.99,FreeWX-Wi 1.02,2013-01-24 14:45:00,
2013-01-24 06:50:00,58.8,20.1,30.12,North,-999,0.0,0.0,22,0.00,,,-99.99,FreeWX-Wi 1.02,2013-01-24 14:50:00,
2013-01-24 06:55:00,58.3,22.6,30.12,North,-999,0.0,0.0,25,0.00,,,-99.99,FreeWX-Wi 1.02,2013-01-24 14:55:00,
2013-01-24 07:00:00,58.1,22.5,30.12,North,-999,0.0,3.1,25,0.00,,,-99.99,FreeWX-Wi 1.02,2013-01-24 15:00:00,
2013-01-24 07:05:00,58.5,22.8,30.12,North,-999,0.0,5.4,25,0.00,,,-99.99,FreeWX-Wi 1.02,2013-01-24 15:05:00,
2013-01-24 07:10:00,59.0,23.2,30.12,ENE,59,1.0,5.4,25,0.00,,,-99.99,FreeWX-Wi 1.02,2013-01-24 15:10:00,
2013-01-24 07:15:00,59.4,23.5,30.15,East,91,1.0,5.8,25,0.00,,,-99.99,FreeWX-Wi 1.02,2013-01-24 15:15:00,
2013-01-24 07:20:00,59.4,23.5,30.15,SE,137,2.0,5.4,25,0.00,,,-99.99,FreeWX-Wi 1.02,2013-01-24 15:20:00,
2013-01-24 07:25:00,59.5,23.7,30.15,South,169,3.0,4.9,25,0.00,,,-99.99,FreeWX-Wi 1.02,2013-01-24 15:25:00,
2013-01-24 07:30:00,59.5,23.7,30.15,South,188,3.0,4.9,25,0.00,,,-99.99,FreeWX-Wi 1.02,2013-01-24 15:30:00,
2013-01-24 07:35:00,59.7,24.8,30.15,SSW,205,3.0,4.0,26,0.00,,,-99.99,FreeWX-Wi 1.02,2013-01-24 15:35:00,
2013-01-24 07:40:00,59.9,25.0,30.15,SW,219,3.0,4.9,26,0.00,,,-99.99,FreeWX-Wi 1.02,2013-01-24 15:40:00,
2013-01-24 07:45:00,60.1,24.1,30.15,SW,230,3.0,4.9,25,0.00,,,-99.99,FreeWX-Wi 1.02,2013-01-24 15:45:00,
2013-01-24 07:50:00,60.1,23.2,30.15,SW,229,3.0,4.9,24,0.00,,,-99.99,FreeWX-Wi 1.02,2013-01-24 15:50:00,
2013-01-24 07:55:00,60.3,17.8,30.15,SW,223,3.0,5.4,19,0.00,,,-99.99,FreeWX-Wi 1.02,2013-01-24 15:55:00,
2013-01-24 08:00:00,60.3,17.8,30.18,SSW,213,3.0,5.8,19,0.00,,,-99.99,FreeWX-Wi 1.02,2013-01-24 16:00:00,
2013-01-24 08:05:00,60.1,17.8,30.18,SSW,204,2.0,2.7,19,0.00,,,-99.99,FreeWX-Wi 1.02,2013-01-24 16:05:00,
2013-01-24 08:10:00,59.9,17.6,30.18,SSW,194,2.0,0.0,19,0.00,,,-99.99,FreeWX-Wi 1.02,2013-01-24 16:10:00,
2013-01-24 08:15:00,59.5,17.2,30.18,South,187,1.0,0.0,19,0.00,,,-99.99,FreeWX-Wi 1.02,2013-01-24 16:15:00,
2013-01-24 08:20:00,59.4,17.1,30.18,South,187,1.0,0.0,19,0.00,,,-99.99,FreeWX-Wi 1.02,2013-01-24 16:20:00,
2013-01-24 08:25:00,59.4,17.1,30.18,North,-999,0.0,0.0,19,0.00,,,-99.99,FreeWX-Wi 1.02,2013-01-24 16:25:00,
2013-01-24 08:30:00,59.4,17.1,30.18,North,-999,0.0,0.0,19,0.00,,,-99.99,FreeWX-Wi 1.02,2013-01-24 16:30:00,
2013-01-24 08:35:00,59.7,17.4,30.18,North,-999,0.0,5.8,19,0.00,,,-99.99,FreeWX-Wi 1.02,2013-01-24 16:35:00,
2013-01-24 08:40:00,60.1,17.8,30.18,North,-999,0.0,6.3,19,0.00,,,-99.99,FreeWX-Wi 1.02,2013-01-24 16:40:00,
2013-01-24 08:45:00,60.8,18.3,30.18,SSE,167,1.0,5.8,19,0.00,,,-99.99,FreeWX-Wi 1.02,2013-01-24 16:45:00,
2013-01-24 08:50:00,61.2,18.5,30.18,SSE,157,2.0,5.8,19,0.00,,,-99.99,FreeWX-Wi 1.02,2013-01-24 16:50:00,
2013-01-24 08:55:00,61.7,19.0,30.18,SE,145,3.0,6.3,19,0.00,,,-99.99,FreeWX-Wi 1.02,2013-01-24 16:55:00,
2013-01-24 09:00:00,61.9,19.2,30.21,SE,132,3.0,7.2,19,0.00,,,-99.99,FreeWX-Wi 1.02,2013-01-24 17:00:00,
2013-01-24 09:05:00,62.2,19.4,30.21,ESE,120,4.0,5.4,19,0.00,,,-99.99,FreeWX-Wi 1.02,2013-01-24 17:05:00,
2013-01-24 09:10:00,62.8,18.7,30.21,ESE,114,4.0,5.8,18,0.00,,,-99.99,FreeWX-Wi 1.02,2013-01-24 17:10:00,
2013-01-24 09:15:00,63.3,19.0,30.21,ESE,108,4.0,5.4,18,0.00,,,-99.99,FreeWX-Wi 1.02,2013-01-24 17:15:00,
2013-01-24 09:20:00,63.9,19.6,30.21,ESE,103,4.0,4.9,18,0.00,,,-99.99,FreeWX-Wi 1.02,2013-01-24 17:20:00,
2013-01-24 09:25:00,64.2,19.8,30.21,East,96,3.0,4.0,18,0.00,,,-99.99,FreeWX-Wi 1.02,2013-01-24 17:25:00,
2013-01-24 09:30:00,64.8,20.3,30.21,East,94,2.0,2.2,18,0.00,,,-99.99,FreeWX-Wi 1.02,2013-01-24 17:30:00,
2013-01-24 09:35:00,64.8,20.3,30.21,East,93,2.0,0.0,18,0.00,,,-99.99,FreeWX-Wi 1.02,2013-01-24 17:35:00,
2013-01-24 09:40:00,64.9,20.5,30.21,East,90,1.0,0.0,18,0.00,,,-99.99,FreeWX-Wi 1.02,2013-01-24 17:40:00,
2013-01-24 09:45:00,64.6,20.1,30.21,North,-999,0.0,2.7,18,0.00,,,-99.99,FreeWX-Wi 1.02,2013-01-24 17:45:00,
2013-01-24 09:50:00,64.2,19.8,30.21,East,90,1.0,4.5,18,0.00,,,-99.99,FreeWX-Wi 1.02,2013-01-24 17:50:00,
2013-01-24 09:55:00,64.4,19.9,30.21,East,99,1.0,4.0,18,0.00,,,-99.99,FreeWX-Wi 1.02,2013-01-24 17:55:00,
2013-01-24 10:00:00,64.6,20.1,30.21,ESE,117,1.0,3.6,18,0.00,,,-99.99,FreeWX-Wi 1.02,2013-01-24 18:00:00,
2013-01-24 10:05:00,64.8,20.3,30.21,SSE,147,2.0,6.7,18,0.00,,,-99.99,FreeWX-Wi 1.02,2013-01-24 18:05:00,
2013-01-24 10:10:00,64.8,20.3,30.21,South,184,2.0,5.4,18,0.00,,,-99.99,FreeWX-Wi 1.02,2013-01-24 18:10:00,
2013-01-24 10:15:00,64.8,20.3,30.21,SW,215,3.0,4.9,18,0.00,,,-99.99,FreeWX-Wi 1.02,2013-01-24 18:15:00,
2013-01-24 10:20:00,64.8,20.3,30.21,SW,233,2.0,5.4,18,0.00,,,-99.99,FreeWX-Wi 1.02,2013-01-24 18:20:00,
2013-01-24 10:25:00,64.2,19.8,30.21,WSW,247,2.0,4.0,18,0.00,,,-99.99,FreeWX-Wi 1.02,2013-01-24 18:25:00,
2013-01-24 10:30:00,63.5,19.2,30.21,West,260,2.0,4.0,18,0.00,,,-99.99,FreeWX-Wi 1.02,2013-01-24 18:30:00,
2013-01-24 10:35:00,63.7,19.4,30.21,West,267,2.0,3.6,18,0.00,,,-99.99,FreeWX-Wi 1.02,2013-01-24 18:35:00,
2013-01-24 10:40:00,64.0,19.8,30.21,West,273,2.0,4.0,18,0.00,,,-99.99,FreeWX-Wi 1.02,2013-01-24 18:40:00,
2013-01-24 10:45:00,64.9,20.5,30.21,West,277,1.0,4.0,18,0.00,,,-99.99,FreeWX-Wi 1.02,2013-01-24 18:45:00,
2013-01-24 10:50:00,65.8,21.2,30.21,West,278,1.0,3.6,18,0.00,,,-99.99,FreeWX-Wi 1.02,2013-01-24 18:50:00,
2013-01-24 10:55:00,65.8,21.2,30.21,West,280,1.0,5.8,18,0.00,,,-99.99,FreeWX-Wi 1.02,2013-01-24 18:55:00,
2013-01-24 11:00:00,65.8,21.2,30.21,West,280,1.0,6.3,18,0.00,,,-99.99,FreeWX-Wi 1.02,2013-01-24 19:00:00,
2013-01-24 11:05:00,66.2,20.1,30.21,West,278,2.0,7.6,17,0.00,,,-99.99,FreeWX-Wi 1.02,2013-01-24 19:05:00,
2013-01-24 11:10:00,67.3,21.0,30.21,West,277,2.0,6.7,17,0.00,,,-99.99,FreeWX-Wi 1.02,2013-01-24 19:10:00,
2013-01-24 11:15:00,67.5,21.2,30.21,West,277,2.0,6.3,17,0.00,,,-99.99,FreeWX-Wi 1.02,2013-01-24 19:15:00,
2013-01-24 11:20:00,68.0,21.6,30.21,West,272,3.0,6.7,17,0.00,,,-99.99,FreeWX-Wi 1.02,2013-01-24 19:20:00,
2013-01-24 11:25:00,67.8,21.4,30.21,West,275,3.0,4.0,17,0.00,,,-99.99,FreeWX-Wi 1.02,2013-01-24 19:25:00,
2013-01-24 11:30:00,68.5,21.9,30.21,West,273,3.0,7.6,17,0.00,,,-99.99,FreeWX-Wi 1.02,2013-01-24 19:30:00,
2013-01-24 11:35:00,69.4,22.8,30.21,West,275,3.0,6.3,17,0.00,,,-99.99,FreeWX-Wi 1.02,2013-01-24 19:35:00,
2013-01-24 11:40:00,68.9,22.3,30.21,WNW,284,3.0,5.8,17,0.00,,,-99.99,FreeWX-Wi 1.02,2013-01-24 19:40:00,
2013-01-24 11:45:00,69.3,22.6,30.18,WNW,290,2.0,4.0,17,0.00,,,-99.99,FreeWX-Wi 1.02,2013-01-24 19:45:00,
2013-01-24 11:50:00,69.6,22.8,30.18,WNW,294,3.0,8.7,17,0.00,,,-99.99,FreeWX-Wi 1.02,2013-01-24 19:50:00,
2013-01-24 11:55:00,70.0,23.2,30.18,WNW,284,3.0,7.6,17,0.00,,,-99.99,FreeWX-Wi 1.02,2013-01-24 19:55:00,
2013-01-24 12:00:00,71.1,24.1,30.18,WNW,287,3.0,7.2,17,0.00,,,-99.99,FreeWX-Wi 1.02,2013-01-24 20:00:00,
2013-01-24 12:05:00,71.4,24.3,30.18,West,281,4.0,8.3,17,0.00,,,-99.99,FreeWX-Wi 1.02,2013-01-24 20:05:00,
2013-01-24 12:10:00,71.2,24.3,30.18,West,270,4.0,8.7,17,0.00,,,-99.99,FreeWX-Wi 1.02,2013-01-24 20:10:00,
2013-01-24 12:15:00,71.6,23.0,30.18,West,265,5.0,8.7,16,0.00,,,-99.99,FreeWX-Wi 1.02,2013-01-24 20:15:00,
2013-01-24 12:20:00,72.5,23.7,30.18,West,263,5.0,7.6,16,0.00,,,-99.99,FreeWX-Wi 1.02,2013-01-24 20:20:00,
2013-01-24 12:25:00,71.8,23.2,30.18,West,264,5.0,5.8,16,0.00,,,-99.99,FreeWX-Wi 1.02,2013-01-24 20:25:00,
2013-01-24 12:30:00,70.7,23.7,30.18,West,270,4.0,4.0,17,0.00,,,-99.99,FreeWX-Wi 1.02,2013-01-24 20:30:00,
2013-01-24 12:35:00,70.5,23.5,30.18,West,272,4.0,5.8,17,0.00,,,-99.99,FreeWX-Wi 1.02,2013-01-24 20:35:00,
2013-01-24 12:40:00,70.5,23.5,30.18,West,272,3.0,5.8,17,0.00,,,-99.99,FreeWX-Wi 1.02,2013-01-24 20:40:00,
2013-01-24 12:45:00,70.0,23.2,30.18,West,270,2.0,6.3,17,0.00,,,-99.99,FreeWX-Wi 1.02,2013-01-24 20:45:00,
2013-01-24 12:50:00,69.8,23.0,30.18,West,265,2.0,8.1,17,0.00,,,-99.99,FreeWX-Wi 1.02,2013-01-24 20:50:00,
2013-01-24 12:55:00,70.0,23.2,30.18,West,260,3.0,6.3,17,0.00,,,-99.99,FreeWX-Wi 1.02,2013-01-24 20:55:00,
2013-01-24 13:00:00,70.3,23.5,30.18,WSW,243,3.0,6.3,17,0.00,,,-99.99,FreeWX-Wi 1.02,2013-01-24 21:00:00,
2013-01-24 13:05:00,70.3,23.5,30.18,SW,236,3.0,4.9,17,0.00,,,-99.99,FreeWX-Wi 1.02,2013-01-24 21:05:00,
2013-01-24 13:10:00,70.5,23.5,30.18,SW,232,3.0,6.3,17,0.00,,,-99.99,FreeWX-Wi 1.02,2013-01-24 21:10:00,
2013-01-24 13:15:00,70.7,23.7,30.15,SW,232,3.0,4.9,17,0.00,,,-99.99,FreeWX-Wi 1.02,2013-01-24 21:15:00,
2013-01-24 13:20:00,71.1,24.1,30.15,SW,235,3.0,6.3,17,0.00,,,-99.99,FreeWX-Wi 1.02,2013-01-24 21:20:00,
2013-01-24 13:25:00,71.4,24.3,30.15,SW,236,3.0,5.8,17,0.00,,,-99.99,FreeWX-Wi 1.02,2013-01-24 21:25:00,
2013-01-24 13:30:00,72.0,23.4,30.15,WSW,244,3.0,4.0,16,0.00,,,-99.99,FreeWX-Wi 1.02,2013-01-24 21:30:00,
2013-01-24 13:35:00,71.8,23.2,30.15,WSW,244,3.0,6.3,16,0.00,,,-99.99,FreeWX-Wi 1.02,2013-01-24 21:35:00,
2013-01-24 13:40:00,71.8,23.2,30.15,WSW,245,3.0,7.2,16,0.00,,,-99.99,FreeWX-Wi 1.02,2013-01-24 21:40:00,
2013-01-24 13:45:00,71.6,23.0,30.15,WSW,250,3.0,6.3,16,0.00,,,-99.99,FreeWX-Wi 1.02,2013-01-24 21:45:00,
2013-01-24 13:50:00,71.2,24.3,30.15,WSW,253,3.0,5.4,17,0.00,,,-99.99,FreeWX-Wi 1.02,2013-01-24 21:50:00,
2013-01-24 13:55:00,70.9,23.9,30.15,WSW,254,3.0,6.3,17,0.00,,,-99.99,FreeWX-Wi 1.02,2013-01-24 21:55:00,
2013-01-24 14:00:00,70.7,23.7,30.15,WSW,256,3.0,6.3,17,0.00,,,-99.99,FreeWX-Wi 1.02,2013-01-24 22:00:00,
2013-01-24 14:05:00,70.3,23.5,30.15,West,259,3.0,6.3,17,0.00,,,-99.99,FreeWX-Wi 1.02,2013-01-24 22:05:00,
2013-01-24 14:10:00,70.0,23.2,30.15,West,259,3.0,5.8,17,0.00,,,-99.99,FreeWX-Wi 1.02,2013-01-24 22:10:00,
2013-01-24 14:15:00,69.4,22.8,30.15,WSW,251,3.0,6.3,17,0.00,,,-99.99,FreeWX-Wi 1.02,2013-01-24 22:15:00,
2013-01-24 14:20:00,69.3,22.6,30.15,WSW,244,3.0,3.6,17,0.00,,,-99.99,FreeWX-Wi 1.02,2013-01-24 22:20:00,
2013-01-24 14:25:00,69.3,22.6,30.15,WSW,240,3.0,6.3,17,0.00,,,-99.99,FreeWX-Wi 1.02,2013-01-24 22:25:00,
2013-01-24 14:30:00,69.4,22.8,30.15,SW,235,3.0,3.6,17,0.00,,,-99.99,FreeWX-Wi 1.02,2013-01-24 22:30:00,
2013-01-24 14:35:00,69.8,23.0,30.15,SW,230,2.0,3.6,17,0.00,,,-99.99,FreeWX-Wi 1.02,2013-01-24 22:35:00,
2013-01-24 14:40:00,70.0,23.2,30.15,SW,229,2.0,3.6,17,0.00,,,-99.99,FreeWX-Wi 1.02,2013-01-24 22:40:00,
2013-01-24 14:45:00,69.8,23.0,30.15,SW,231,2.0,4.0,17,0.00,,,-99.99,FreeWX-Wi 1.02,2013-01-24 22:45:00,
2013-01-24 14:50:00,69.6,22.8,30.15,SW,233,1.0,4.5,17,0.00,,,-99.99,FreeWX-Wi 1.02,2013-01-24 22:50:00,
2013-01-24 14:55:00,69.4,22.8,30.15,SW,232,1.0,4.0,17,0.00,,,-99.99,FreeWX-Wi 1.02,2013-01-24 22:55:00,
2013-01-24 15:00:00,69.4,22.8,30.15,SW,232,1.0,2.2,17,0.00,,,-99.99,FreeWX-Wi 1.02,2013-01-24 23:00:00,
2013-01-24 15:05:00,69.4,22.8,30.15,SW,233,1.0,3.6,17,0.00,,,-99.99,FreeWX-Wi 1.02,2013-01-24 23:05:00,
2013-01-24 15:10:00,69.4,22.8,30.15,SW,233,1.0,3.6,17,0.00,,,-99.99,FreeWX-Wi 1.02,2013-01-24 23:10:00,
2013-01-24 15:15:00,69.1,22.5,30.15,SW,232,1.0,4.9,17,0.00,,,-99.99,FreeWX-Wi 1.02,2013-01-24 23:15:00,
2013-01-24 15:20:00,68.9,22.3,30.15,SW,230,1.0,3.6,17,0.00,,,-99.99,FreeWX-Wi 1.02,2013-01-24 23:20:00,
2013-01-24 15:25:00,68.7,22.1,30.15,SW,228,1.0,3.1,17,0.00,,,-99.99,FreeWX-Wi 1.02,2013-01-24 23:25:00,
2013-01-24 15:30:00,68.9,22.3,30.15,SW,227,2.0,5.4,17,0.00,,,-99.99,FreeWX-Wi 1.02,2013-01-24 23:30:00,
2013-01-24 15:35:00,68.9,22.3,30.15,SW,226,2.0,4.0,17,0.00,,,-99.99,FreeWX-Wi 1.02,2013-01-24 23:35:00,
2013-01-24 15:40:00,68.7,22.1,30.15,SW,225,2.0,5.4,17,0.00,,,-99.99,FreeWX-Wi 1.02,2013-01-24 23:40:00,
2013-01-24 15:45:00,68.4,21.9,30.15,SW,226,2.0,4.0,17,0.00,,,-99.99,FreeWX-Wi 1.02,2013-01-24 23:45:00,
2013-01-24 15:50:00,68.4,21.9,30.15,SW,227,2.0,5.4,17,0.00,,,-99.99,FreeWX-Wi 1.02,2013-01-24 23:50:00,
2013-01-24 15:55:00,69.1,22.5,30.15,SW,230,3.0,5.4,17,0.00,,,-99.99,FreeWX-Wi 1.02,2013-01-24 23:55:00,
2013-01-24 16:00:00,68.7,22.1,30.15,SW,232,2.0,4.0,17,0.00,,,-99.99,FreeWX-Wi 1.02,2013-01-25 00:00:00,
2013-01-24 16:05:00,68.5,21.9,30.15,SW,235,3.0,6.3,17,0.00,,,-99.99,FreeWX-Wi 1.02,2013-01-25 00:05:00,
2013-01-24 16:10:00,68.4,21.9,30.15,SW,235,3.0,4.9,17,0.00,,,-99.99,FreeWX-Wi 1.02,2013-01-25 00:10:00,
2013-01-24 16:15:00,67.6,21.2,30.15,SW,236,2.0,3.6,17,0.00,,,-99.99,FreeWX-Wi 1.02,2013-01-25 00:15:00,
2013-01-24 16:20:00,66.9,20.7,30.15,WSW,237,2.0,3.1,17,0.00,,,-99.99,FreeWX-Wi 1.02,2013-01-25 00:20:00,
2013-01-24 16:25:00,66.6,20.5,30.15,WSW,237,2.0,4.0,17,0.00,,,-99.99,FreeWX-Wi 1.02,2013-01-25 00:25:00,
2013-01-24 16:30:00,65.8,21.2,30.18,SW,235,1.0,0.0,18,0.00,,,-99.99,FreeWX-Wi 1.02,2013-01-25 00:30:00,
2013-01-24 16:35:00,65.5,20.8,30.18,SW,235,1.0,3.6,18,0.00,,,-99.99,FreeWX-Wi 1.02,2013-01-25 00:35:00,
2013-01-24 16:40:00,64.6,20.1,30.18,North,-999,0.0,0.0,18,0.00,,,-99.99,FreeWX-Wi 1.02,2013-01-25 00:40:00,
2013-01-24 16:45:00,63.9,19.6,30.18,North,-999,0.0,0.0,18,0.00,,,-99.99,FreeWX-Wi 1.02,2013-01-25 00:45:00,
2013-01-24 16:50:00,63.1,19.0,30.18,North,-999,0.0,0.0,18,0.00,,,-99.99,FreeWX-Wi 1.02,2013-01-25 00:50:00,
2013-01-24 16:55:00,63.0,18.9,30.18,North,-999,0.0,0.0,18,0.00,,,-99.99,FreeWX-Wi 1.02,2013-01-25 00:55:00,
2013-01-24 17:00:00,62.4,19.6,30.18,North,-999,0.0,0.0,19,0.00,,,-99.99,FreeWX-Wi 1.02,2013-01-25 01:00:00,
2013-01-24 17:05:00,62.2,21.7,30.18,North,-999,0.0,0.0,21,0.00,,,-99.99,FreeWX-Wi 1.02,2013-01-25 01:05:00,
2013-01-24 17:10:00,61.7,21.4,30.18,North,-999,0.0,0.0,21,0.00,,,-99.99,FreeWX-Wi 1.02,2013-01-25 01:10:00,
2013-01-24 17:15:00,61.3,21.0,30.18,North,-999,0.0,0.0,21,0.00,,,-99.99,FreeWX-Wi 1.02,2013-01-25 01:15:00,
2013-01-24 17:20:00,61.3,21.0,30.18,North,-999,0.0,0.0,21,0.00,,,-99.99,FreeWX-Wi 1.02,2013-01-25 01:20:00,
2013-01-24 17:25:00,61.2,20.8,30.18,North,-999,0.0,0.0,21,0.00,,,-99.99,FreeWX-Wi 1.02,2013-01-25 01:25:00,
2013-01-24 17:30:00,61.2,20.8,30.18,North,-999,0.0,0.0,21,0.00,,,-99.99,FreeWX-Wi 1.02,2013-01-25 01:30:00,
2013-01-24 17:35:00,61.0,20.8,30.18,North,-999,0.0,0.0,21,0.00,,,-99.99,FreeWX-Wi 1.02,2013-01-25 01:35:00,
2013-01-24 17:40:00,60.6,21.6,30.18,North,-999,0.0,0.0,22,0.00,,,-99.99,FreeWX-Wi 1.02,2013-01-25 01:40:00,
2013-01-24 17:45:00,60.4,21.4,30.18,North,-999,0.0,0.0,22,0.00,,,-99.99,FreeWX-Wi 1.02,2013-01-25 01:45:00,
2013-01-24 17:50:00,60.3,21.2,30.18,North,-999,0.0,0.0,22,0.00,,,-99.99,FreeWX-Wi 1.02,2013-01-25 01:50:00,
2013-01-24 17:55:00,60.3,21.2,30.18,North,-999,0.0,0.0,22,0.00,,,-99.99,FreeWX-Wi 1.02,2013-01-25 01:55:00,
2013-01-24 18:00:00,59.9,21.0,30.18,North,-999,0.0,0.0,22,0.00,,,-99.99,FreeWX-Wi 1.02,2013-01-25 02:00:00,
2013-01-24 18:05:00,59.9,21.0,30.18,North,-999,0.0,0.0,22,0.00,,,-99.99,FreeWX-Wi 1.02,2013-01-25 02:05:00,
2013-01-24 18:10:00,59.9,21.0,30.18,North,-999,0.0,0.0,22,0.00,,,-99.99,FreeWX-Wi 1.02,2013-01-25 02:10:00,
2013-01-24 18:15:00,59.5,20.7,30.18,North,-999,0.0,0.0,22,0.00,,,-99.99,FreeWX-Wi 1.02,2013-01-25 02:15:00,
2013-01-24 18:20:00,59.5,20.7,30.18,North,-999,0.0,0.0,22,0.00,,,-99.99,FreeWX-Wi 1.02,2013-01-25 02:20:00,
2013-01-24 18:25:00,59.7,17.4,30.18,North,-999,0.0,0.0,19,0.00,,,-99.99,FreeWX-Wi 1.02,2013-01-25 02:25:00,
2013-01-24 18:30:00,59.7,20.8,30.18,North,-999,0.0,0.0,22,0.00,,,-99.99,FreeWX-Wi 1.02,2013-01-25 02:30:00,
2013-01-24 18:35:00,59.5,20.7,30.18,North,-999,0.0,0.0,22,0.00,,,-99.99,FreeWX-Wi 1.02,2013-01-25 02:35:00,
2013-01-24 18:40:00,59.7,20.8,30.18,North,-999,0.0,0.0,22,0.00,,,-99.99,FreeWX-Wi 1.02,2013-01-25 02:40:00,
2013-01-24 18:45:00,59.9,17.6,30.18,North,-999,0.0,0.0,19,0.00,,,-99.99,FreeWX-Wi 1.02,2013-01-25 02:45:00,
2013-01-24 18:50:00,60.1,17.8,30.18,North,-999,0.0,0.0,19,0.00,,,-99.99,FreeWX-Wi 1.02,2013-01-25 02:50:00,
2013-01-24 18:55:00,60.1,17.8,30.18,North,-999,0.0,0.0,19,0.00,,,-99.99,FreeWX-Wi 1.02,2013-01-25 02:55:00,
2013-01-24 19:00:00,60.1,17.8,30.18,North,-999,0.0,0.0,19,0.00,,,-99.99,FreeWX-Wi 1.02,2013-01-25 03:00:00,
2013-01-24 19:05:00,59.9,17.6,30.18,North,-999,0.0,0.0,19,0.00,,,-99.99,FreeWX-Wi 1.02,2013-01-25 03:05:00,
2013-01-24 19:10:00,59.4,17.1,30.18,North,-999,0.0,0.0,19,0.00,,,-99.99,FreeWX-Wi 1.02,2013-01-25 03:10:00,
2013-01-24 19:15:00,58.8,16.7,30.18,North,-999,0.0,0.0,19,0.00,,,-99.99,FreeWX-Wi 1.02,2013-01-25 03:15:00,
2013-01-24 19:20:00,58.3,19.6,30.18,North,-999,0.0,0.0,22,0.00,,,-99.99,FreeWX-Wi 1.02,2013-01-25 03:20:00,
2013-01-24 19:25:00,57.9,19.4,30.18,North,-999,0.0,0.0,22,0.00,,,-99.99,FreeWX-Wi 1.02,2013-01-25 03:25:00,
2013-01-24 19:30:00,57.9,19.4,30.18,North,-999,0.0,0.0,22,0.00,,,-99.99,FreeWX-Wi 1.02,2013-01-25 03:30:00,
2013-01-24 19:35:00,58.1,19.4,30.18,North,-999,0.0,0.0,22,0.00,,,-99.99,FreeWX-Wi 1.02,2013-01-25 03:35:00,
2013-01-24 19:40:00,58.1,19.4,30.18,North,-999,0.0,0.0,22,0.00,,,-99.99,FreeWX-Wi 1.02,2013-01-25 03:40:00,
2013-01-24 19:45:00,57.9,19.4,30.18,North,-999,0.0,0.0,22,0.00,,,-99.99,FreeWX-Wi 1.02,2013-01-25 03:45:00,
2013-01-24 19:50:00,57.6,19.0,30.18,North,-999,0.0,0.0,22,0.00,,,-99.99,FreeWX-Wi 1.02,2013-01-25 03:50:00,
2013-01-24 19:55:00,57.7,19.2,30.18,North,-999,0.0,0.0,22,0.00,,,-99.99,FreeWX-Wi 1.02,2013-01-25 03:55:00,
2013-01-24 20:00:00,57.7,19.2,30.18,North,-999,0.0,0.0,22,0.00,,,-99.99,FreeWX-Wi 1.02,2013-01-25 04:00:00,
2013-01-24 20:05:00,57.7,19.2,30.18,North,-999,0.0,0.0,22,0.00,,,-99.99,FreeWX-Wi 1.02,2013-01-25 04:05:00,
2013-01-24 20:10:00,57.7,19.2,30.18,North,-999,0.0,0.0,22,0.00,,,-99.99,FreeWX-Wi 1.02,2013-01-25 04:10:00,
2013-01-24 20:15:00,57.6,19.0,30.18,North,-999,0.0,2.7,22,0.00,,,-99.99,FreeWX-Wi 1.02,2013-01-25 04:15:00,
2013-01-24 20:20:00,57.7,19.2,30.18,North,-999,0.0,2.7,22,0.00,,,-99.99,FreeWX-Wi 1.02,2013-01-25 04:20:00,
2013-01-24 20:25:00,57.6,19.0,30.18,North,-999,0.0,0.0,22,0.00,,,-99.99,FreeWX-Wi 1.02,2013-01-25 04:25:00,
2013-01-24 20:30:00,57.6,19.0,30.18,North,-999,0.0,0.0,22,0.00,,,-99.99,FreeWX-Wi 1.02,2013-01-25 04:30:00,
2013-01-24 20:35:00,57.6,19.0,30.18,North,-999,0.0,0.0,22,0.00,,,-99.99,FreeWX-Wi 1.02,2013-01-25 04:35:00,
2013-01-24 20:40:00,57.6,19.0,30.18,North,-999,0.0,0.0,22,0.00,,,-99.99,FreeWX-Wi 1.02,2013-01-25 04:40:00,
2013-01-24 20:45:00,57.2,18.7,30.18,North,-999,0.0,0.0,22,0.00,,,-99.99,FreeWX-Wi 1.02,2013-01-25 04:45:00,
2013-01-24 20:50:00,57.2,18.7,30.18,North,-999,0.0,0.0,22,0.00,,,-99.99,FreeWX-Wi 1.02,2013-01-25 04:50:00,
2013-01-24 20:55:00,58.5,19.8,30.18,North,-999,0.0,3.6,22,0.00,,,-99.99,FreeWX-Wi 1.02,2013-01-25 04:55:00,
2013-01-24 21:00:00,60.1,21.2,30.18,North,-999,0.0,4.9,22,0.00,,,-99.99,FreeWX-Wi 1.02,2013-01-25 05:00:00,
2013-01-24 21:05:00,60.6,21.6,30.18,WSW,254,1.0,3.6,22,0.00,,,-99.99,FreeWX-Wi 1.02,2013-01-25 05:05:00,
2013-01-24 21:10:00,60.6,18.1,30.18,West,280,1.0,3.1,19,0.00,,,-99.99,FreeWX-Wi 1.02,2013-01-25 05:10:00,
2013-01-24 21:15:00,60.6,18.1,30.18,NW,317,1.0,0.0,19,0.00,,,-99.99,FreeWX-Wi 1.02,2013-01-25 05:15:00,
2013-01-24 21:20:00,60.4,18.0,30.18,NNW,342,1.0,0.0,19,0.00,,,-99.99,FreeWX-Wi 1.02,2013-01-25 05:20:00,
2013-01-24 21:25:00,60.3,17.8,30.18,North,357,1.0,2.2,19,0.00,,,-99.99,FreeWX-Wi 1.02,2013-01-25 05:25:00,
2013-01-24 21:30:00,59.9,21.0,30.21,North,-999,0.0,0.0,22,0.00,,,-99.99,FreeWX-Wi 1.02,2013-01-25 05:30:00,
2013-01-24 21:35:00,59.7,20.8,30.21,North,-999,0.0,0.0,22,0.00,,,-99.99,FreeWX-Wi 1.02,2013-01-25 05:35:00,
2013-01-24 21:40:00,60.1,17.8,30.21,North,-999,0.0,2.7,19,0.00,,,-99.99,FreeWX-Wi 1.02,2013-01-25 05:40:00,
2013-01-24 21:45:00,60.4,18.0,30.18,North,-999,0.0,3.1,19,0.00,,,-99.99,FreeWX-Wi 1.02,2013-01-25 05:45:00,
2013-01-24 21:50:00,60.6,18.1,30.18,North,-999,0.0,3.1,19,0.00,,,-99.99,FreeWX-Wi 1.02,2013-01-25 05:50:00,
2013-01-24 21:55:00,60.1,21.2,30.18,North,-999,0.0,3.1,22,0.00,,,-99.99,FreeWX-Wi 1.02,2013-01-25 05:55:00,
2013-01-24 22:00:00,59.5,20.7,30.18,North,-999,0.0,0.0,22,0.00,,,-99.99,FreeWX-Wi 1.02,2013-01-25 06:00:00,
2013-01-24 22:05:00,59.2,20.3,30.18,North,-999,0.0,0.0,22,0.00,,,-99.99,FreeWX-Wi 1.02,2013-01-25 06:05:00,
2013-01-24 22:10:00,59.0,20.3,30.18,North,-999,0.0,0.0,22,0.00,,,-99.99,FreeWX-Wi 1.02,2013-01-25 06:10:00,
2013-01-24 22:15:00,58.5,19.8,30.18,North,-999,0.0,0.0,22,0.00,,,-99.99,FreeWX-Wi 1.02,2013-01-25 06:15:00,
2013-01-24 22:20:00,58.3,19.6,30.18,North,-999,0.0,0.0,22,0.00,,,-99.99,FreeWX-Wi 1.02,2013-01-25 06:20:00,
2013-01-24 22:25:00,58.5,19.8,30.18,North,-999,0.0,0.0,22,0.00,,,-99.99,FreeWX-Wi 1.02,2013-01-25 06:25:00,
2013-01-24 22:30:00,58.6,19.9,30.18,North,-999,0.0,0.0,22,0.00,,,-99.99,FreeWX-Wi 1.02,2013-01-25 06:30:00,
2013-01-24 22:35:00,58.6,19.9,30.18,North,-999,0.0,0.0,22,0.00,,,-99.99,FreeWX-Wi 1.02,2013-01-25 06:35:00,
2013-01-24 22:40:00,58.8,20.1,30.18,North,-999,0.0,2.7,22,0.00,,,-99.99,FreeWX-Wi 1.02,2013-01-25 06:40:00,
2013-01-24 22:45:00,58.8,20.1,30.18,North,-999,0.0,0.0,22,0.00,,,-99.99,FreeWX-Wi 1.02,2013-01-25 06:45:00,
2013-01-24 22:50:00,58.8,20.1,30.18,North,-999,0.0,0.0,22,0.00,,,-99.99,FreeWX-Wi 1.02,2013-01-25 06:50:00,
2013-01-24 22:55:00,58.8,20.1,30.18,North,-999,0.0,0.0,22,0.00,,,-99.99,FreeWX-Wi 1.02,2013-01-25 06:55:00,
2013-01-24 23:00:00,59.0,20.3,30.18,North,-999,0.0,0.0,22,0.00,,,-99.99,FreeWX-Wi 1.02,2013-01-25 07:00:00,
2013-01-24 23:05:00,59.0,20.3,30.18,North,-999,0.0,0.0,22,0.00,,,-99.99,FreeWX-Wi 1.02,2013-01-25 07:05:00,
2013-01-24 23:10:00,58.8,20.1,30.18,North,-999,0.0,0.0,22,0.00,,,-99.99,FreeWX-Wi 1.02,2013-01-25 07:10:00,
2013-01-24 23:15:00,58.8,20.1,30.18,North,-999,0.0,0.0,22,0.00,,,-99.99,FreeWX-Wi 1.02,2013-01-25 07:15:00,
2013-01-24 23:20:00,58.8,22.1,30.18,North,-999,0.0,0.0,24,0.00,,,-99.99,FreeWX-Wi 1.02,2013-01-25 07:20:00,
2013-01-24 23:25:00,58.8,22.1,30.18,North,-999,0.0,0.0,24,0.00,,,-99.99,FreeWX-Wi 1.02,2013-01-25 07:25:00,
2013-01-24 23:30:00,58.8,23.0,30.18,North,-999,0.0,0.0,25,0.00,,,-99.99,FreeWX-Wi 1.02,2013-01-25 07:30:00,
2013-01-24 23:35:00,58.8,23.0,30.18,North,-999,0.0,0.0,25,0.00,,,-99.99,FreeWX-Wi 1.02,2013-01-25 07:35:00,
2013-01-24 23:40:00,58.8,24.1,30.18,North,-999,0.0,0.0,26,0.00,,,-99.99,FreeWX-Wi 1.02,2013-01-25 07:40:00,
2013-01-24 23:45:00,58.6,23.9,30.21,North,-999,0.0,0.0,26,0.00,,,-99.99,FreeWX-Wi 1.02,2013-01-25 07:45:00,
2013-01-24 23:50:00,58.6,24.8,30.21,North,-999,0.0,0.0,27,0.00,,,-99.99,FreeWX-Wi 1.02,2013-01-25 07:50:00,
2013-01-24 23:55:00,58.5,25.5,30.21,North,-999,0.0,0.0,28,0.00,,,-99.99,FreeWX-Wi 1.02,2013-01-25 07:55:00,